Simultaneous Nadir Overpasses (SNOs) Predictions

Prediction of SNOs between GOES-15 and METOP-A Satellite Orbit:

Table of predicted SNOs for the next 14.0 days since TLE Epoch: 6/2/2017
Index Date Time (GOES-15) GOES-15 Lat,Lon METOP-A Lat,Lon Distance(km) Time Diff (sec)
1 06/03/2017 06:35:44 0.14,-135.05 -0.18,-136.36 150.75 80
2 06/04/2017 06:12:25 0.15,-135.08 0.96,-131.37 421.89 80
3 06/05/2017 18:33:56 -0.14,-135.15 0.05,-135.94 89.89 80
4 06/06/2017 18:10:37 -0.15,-135.18 -1.09,-130.95 482.21 80
5 06/08/2017 06:32:16 0.14,-135.20 0.05,-135.54 39.55 80
6 06/10/2017 18:27:48 -0.15,-135.29 -0.19,-135.12 19.43 80
7 06/13/2017 06:26:08 0.15,-135.31 0.29,-134.72 67.51 80
8 06/14/2017 18:47:39 -0.14,-135.37 0.70,-139.29 445.92 80
9 06/15/2017 18:24:18 -0.15,-135.39 -0.38,-134.29 124.74 80




NCC Satellite Simultaneous Nadir Overpasses (SNOs) Prediction Service
